Location: Unspecified
(0.0000°N, 0.0000°E)
Time: 05:29:52
(UTC+02:00)

NOAA 12 - Visible Passes

Search period start: 25 October 2014 00:00
Search period end: 03 November 2014 23:00
Orbit: 796 x 816 km, 98.7° (Epoch: 24 October)

Date Brightness Start Highest point End Pass type
(mag) Time Alt. Az. Time Alt. Az. Time Alt. Az.
25 Oct 4.2 21:22:14 10° S 21:27:31 74° WSW 21:32:49 10° NNW visible
26 Oct 4.1 19:57:34 10° SSE 20:02:46 56° ENE 20:07:57 10° N visible
27 Oct 4.9 19:33:30 10° SE 19:38:00 28° ENE 19:42:29 10° NNE visible
27 Oct 6.6 21:13:55 10° SW 21:17:30 19° WSW 21:21:06 10° WNW visible
28 Oct 5.6 19:10:31 10° ESE 19:13:15 14° ENE 19:15:59 10° NE visible
28 Oct 5.5 20:47:55 10° SSW 20:52:45 36° WSW 20:57:36 10° NW visible
29 Oct 4.3 20:22:42 10° S 20:28:00 73° WSW 20:33:17 10° NNW visible
30 Oct 4.1 19:58:01 10° SSE 20:03:14 57° ENE 20:08:25 10° N visible
31 Oct 4.9 19:33:57 10° SE 19:38:28 29° ENE 19:42:58 10° NNE visible
31 Oct 6.6 21:14:25 10° SW 21:17:58 18° WSW 21:21:32 10° WNW visible
01 Nov 5.6 19:10:55 10° ESE 19:13:43 14° ENE 19:16:30 10° NE visible
01 Nov 5.5 20:48:24 10° SSW 20:53:13 36° WSW 20:58:03 10° NW visible
02 Nov 4.3 20:23:10 10° S 20:28:28 72° WSW 20:33:45 10° NNW visible
03 Nov 4.1 19:58:28 10° SSE 20:03:42 58° ENE 20:08:54 10° N visible
